Orbital Elements at Epoch 2459200.5 (2020-Dec-17.0) TDB
Reference: JPL 9 (heliocentric ecliptic J2000)
Element | Value | Uncertainty (1-sigma) | Units |
e | .08033950043809814 | 5.1529e-08 | |
a | 2.29828595162672 | 1.331e-08 | au |
q | 2.113642806409131 | 1.163e-07 | au |
i | 5.097379834361824 | 5.9307e-06 | deg |
node | 127.01402673202 | 7.1348e-05 | deg |
peri | 343.120942370125 | 8.428e-05 | deg |
M | 157.1619232172652 | 4.4853e-05 | deg |
tp | 2458644.916480700807 (2019-Jun-10.41648070) | 0.00015689 | TDB |
period | 1272.636926637821 3.48 | 1.1055e-05 3.027e-08 | d yr |
n | .2828772232400045 | 2.4573e-09 | deg/d |
Q | 2.48292909684431 | 1.4379e-08 | au |
|
| | Orbit Determination Parameters
Additional Information
|